WGS F8 (USA 272)

Last updated on Jan. 26, 2020, 4:40 a.m. UTC

1 41879U 16075A   20025.59702328 -.00000211  00000-0  00000-0 0  9998
2 41879   0.0156  59.3384 0000345 300.5077 129.2389  1.00270859 11434
UTC
Height (km)
Latitude
Longitude
Inclination
Orbital Period
UTC large
Height (km)
Speed (km/s)
/
Latitude / Longitude
Inclination (degrees)
Orbital Period (minutes)
Azimuth
Elevation
Range (km)
Doppler Factor
iOS Compass Heading
iOS Angle

Next 30 passes for location: Hong Kong

Rise time Rise Azimuth (degrees) Set time Set Azimuth (degrees) Duration Max altitude (degrees)

No matching passes for this satellites